TimeEST,TemperatureF,Dew PointF,Humidity,Sea Level PressureIn,VisibilityMPH,Wind Direction,Wind SpeedMPH,Gust SpeedMPH,PrecipitationIn,Events,Conditions,WindDirDegrees,DateUTC
12:53 AM,66.0,62.1,87,30.13,10.0,NE,4.6,-,N/A,,Clear,40,2011-12-05 05:53:00
1:53 AM,66.0,62.1,87,30.12,10.0,ENE,4.6,-,N/A,,Mostly Cloudy,70,2011-12-05 06:53:00
2:53 AM,66.0,62.1,87,30.11,10.0,ENE,6.9,-,N/A,,Mostly Cloudy,60,2011-12-05 07:53:00
3:53 AM,66.9,63.0,87,30.09,10.0,ENE,5.8,-,N/A,,Overcast,70,2011-12-05 08:53:00
4:53 AM,68.0,63.0,84,30.09,10.0,East,3.5,-,N/A,,Overcast,80,2011-12-05 09:53:00
5:53 AM,68.0,63.0,84,30.09,10.0,East,4.6,-,N/A,,Overcast,80,2011-12-05 10:53:00
6:53 AM,68.0,63.0,84,30.12,10.0,ENE,5.8,-,N/A,,Mostly Cloudy,70,2011-12-05 11:53:00
7:53 AM,69.1,62.1,78,30.12,10.0,East,6.9,-,N/A,,Clear,90,2011-12-05 12:53:00
8:53 AM,73.0,61.0,66,30.13,10.0,East,10.4,-,N/A,,Clear,100,2011-12-05 13:53:00
9:53 AM,77.0,61.0,58,30.14,10.0,East,9.2,-,N/A,,Clear,100,2011-12-05 14:53:00
10:53 AM,80.1,62.1,54,30.13,10.0,East,13.8,23.0,N/A,,Partly Cloudy,100,2011-12-05 15:53:00
11:53 AM,80.1,62.1,54,30.11,10.0,East,11.5,21.9,N/A,,Scattered Clouds,100,2011-12-05 16:53:00
12:53 PM,82.0,61.0,49,30.07,10.0,ESE,12.7,20.7,N/A,,Scattered Clouds,110,2011-12-05 17:53:00
1:53 PM,81.0,61.0,50,30.05,10.0,East,8.1,-,N/A,,Mostly Cloudy,100,2011-12-05 18:53:00
2:53 PM,82.0,61.0,49,30.05,10.0,ESE,8.1,-,N/A,,Partly Cloudy,120,2011-12-05 19:53:00
3:53 PM,81.0,60.1,49,30.06,10.0,ENE,9.2,-,N/A,,Overcast,70,2011-12-05 20:53:00
5:53 PM,75.0,60.1,60,30.08,10.0,ENE,5.8,-,N/A,,Clear,60,2011-12-05 22:53:00
6:53 PM,72.0,60.1,66,30.09,10.0,East,4.6,-,N/A,,Clear,80,2011-12-05 23:53:00
7:53 PM,72.0,59.0,64,30.10,10.0,East,8.1,-,N/A,,Clear,90,2011-12-06 00:53:00
8:53 PM,70.0,57.9,65,30.11,10.0,East,6.9,-,N/A,,Clear,90,2011-12-06 01:53:00
9:53 PM,68.0,57.9,70,30.12,10.0,East,4.6,-,N/A,,Clear,100,2011-12-06 02:53:00
10:53 PM,66.0,57.9,75,30.12,10.0,East,3.5,-,N/A,,Clear,90,2011-12-06 03:53:00
11:53 PM,64.0,57.9,80,30.12,10.0,Calm,Calm,-,N/A,,Clear,0,2011-12-06 04:53:00